User: anonymous   Login
Location: Unspecified
(0.0000°N, 0.0000°E)
Time: 01:29:31
(UTC+02:00)
Language:

Iridium 4 Rocket - Orbit

View from above orbital plane
View from above orbital plane
View from above satellite
View from above satellite

Ground track
Ground track

The orbit data is extracted from the following two-line orbital elements,

1 24797U 97020F   15212.57070161  .00000382  00000-0  75487-4 0  9993
2 24797 086.8936 244.7126 0228672 086.2379 072.7888 14.43666911958877
Epoch (UTC): 31 July 2015 13:41:48
Eccentricity: 0.0228672
inclination: 86.8936°
perigee height: 583 km
apogee height: 909 km
right ascension of ascending node: 244.7126°
argument of perigee: 86.2379°
revolutions per day: 14.43666911
mean anomaly at epoch: 72.7888°
orbit number at epoch: 95887

The dashed part of the orbit path shows where the satellite is in the earth's shadow,  

DLR